EB5ETD Weather Reports


Display with metric or nautical units.
time (UTC)temp
F
wind
direction
speed
MPH
gust
MPH
rain 1hr
in
rain 24hr
in
rain mn
in
humidity
%
barometer
mb
20260901004004 70 221 1.0 1.0 0.00 0.00 0.00 83 1026.6
20260901003004 70 204 1.0 2.0 0.00 0.00 0.00 83 1026.5
20260901001004 70 232 1.0 1.0 0.00 0.00 0.00 83 1026.6
20260901000504 70 236 1.0 1.0 0.00 0.00 0.00 83 1026.6
20260901000003 70 237 1.0 1.0 0.00 0.00 0.00 83 1026.5
20260831235503 70 242 1.0 2.0 0.00 0.00 0.00 83 1026.6
20260831235004 70 260 1.0 3.0 0.00 0.00 0.00 83 1026.7
20260831234504 70 246 1.0 3.0 0.00 0.00 0.00 83 1026.5
20260831234003 71 228 1.0 3.0 0.00 0.00 0.00 82 1026.2
20260831233504 71 146 0.0 2.0 0.00 0.00 0.00 82 1026.2
20260831233004 71 148 1.0 2.0 0.00 0.00 0.00 82 1026.2
20260831232504 71 210 1.0 3.0 0.00 0.00 0.00 81 1026.3
20260831231505 72 244 2.0 3.0 0.00 0.00 0.00 81 1026.3
20260831231004 72 259 1.0 3.0 0.00 0.00 0.00 81 1026.3
20260831230504 71 223 2.0 5.0 0.00 0.00 0.00 81 1026.4
20260831230004 71 236 1.0 3.0 0.00 0.00 0.00 82 1026.4
20260831225503 71 261 1.0 2.0 0.00 0.00 0.00 84 1026.4
20260831225004 71 261 2.0 3.0 0.00 0.00 0.00 85 1026.3
20260831224004 71 319 2.0 3.0 0.00 0.00 0.00 86 1026.2
20260831223504 70 27 1.0 1.0 0.00 0.00 0.00 85 1026.4
20260831223004 70 27 0.0 1.0 0.00 0.00 0.00 85 1026.4
20260831222503 70 27 0.0 1.0 0.00 0.00 0.00 85 1026.5
20260831222003 70 27 0.0 1.0 0.00 0.00 0.00 85 1026.5
20260831221504 71 27 1.0 1.0 0.00 0.00 0.00 86 1026.6
20260831221007 71 27 0.0 1.0 0.00 0.00 0.00 87 1026.5
20260831220504 72 27 0.0 2.0 0.00 0.00 0.00 88 1026.5
20260831220003 72 60 1.0 2.0 0.00 0.00 0.00 88 1026.4
20260831215503 72 48 1.0 3.0 0.00 0.00 0.00 87 1026.4
20260831214504 72 83 0.0 2.0 0.00 0.00 0.00 86 1026.3
20260831214004 73 70 1.0 3.0 0.00 0.00 0.00 86 1026.4
20260831213504 73 89 1.0 3.0 0.00 0.00 0.00 85 1026.6
20260831213004 73 69 1.0 3.0 0.00 0.00 0.00 85 1026.2
20260831212503 73 47 1.0 3.0 0.00 0.00 0.00 84 1026.2
20260831212004 73 64 1.0 2.0 0.00 0.00 0.00 83 1026.0
20260831211504 74 70 1.0 2.0 0.00 0.00 0.00 83 1026.0
20260831210504 74 75 0.0 2.0 0.00 0.00 0.00 82 1026.0
20260831210004 74 75 0.0 1.0 0.00 0.00 0.00 82 1026.0
20260831205504 74 77 1.0 3.0 0.00 0.00 0.00 81 1025.9
20260831205003 74 67 1.0 3.0 0.00 0.00 0.00 81 1025.8
20260831204504 74 91 0.0 2.0 0.00 0.00 0.00 80 1025.8
20260831203504 75 80 1.0 2.0 0.00 0.00 0.00 79 1025.6
20260831203005 75 81 1.0 2.0 0.00 0.00 0.00 79 1025.5
20260831202503 75 64 1.0 3.0 0.00 0.00 0.00 79 1025.2
20260831202003 75 95 1.0 2.0 0.00 0.00 0.00 78 1025.4
20260831201504 75 86 1.0 3.0 0.00 0.00 0.00 78 1025.3
20260831201005 75 11 2.0 3.0 0.00 0.00 0.00 78 1025.2
20260831200504 75 91 0.0 2.0 0.00 0.00 0.00 77 1025.1
20260831200004 76 57 1.0 3.0 0.00 0.00 0.00 77 1025.0
20260831195504 76 64 0.0 3.0 0.00 0.00 0.00 76 1024.9
20260831194503 76 57 1.0 3.0 0.00 0.00 0.00 76 1024.9
20260831193504 76 65 2.0 3.0 0.00 0.00 0.00 75 1025.0
20260831193003 76 66 1.0 3.0 0.00 0.00 0.00 75 1024.9
20260831192504 77 86 1.0 3.0 0.00 0.00 0.00 74 1024.9
20260831192004 77 54 2.0 3.0 0.00 0.00 0.00 74 1024.9
20260831191503 77 113 1.0 5.0 0.00 0.00 0.00 74 1024.9
20260831191004 77 61 1.0 3.0 0.00 0.00 0.00 73 1024.7
20260831190504 78 56 2.0 6.0 0.00 0.00 0.00 73 1024.5
20260831190004 78 34 2.0 5.0 0.00 0.00 0.00 72 1024.5
20260831185504 78 110 2.0 3.0 0.00 0.00 0.00 72 1024.3
20260831185004 78 66 2.0 3.0 0.00 0.00 0.00 71 1024.4
20260831184505 79 43 1.0 3.0 0.00 0.00 0.00 70 1024.3
20260831184004 79 68 2.0 6.0 0.00 0.00 0.00 70 1024.3
20260831183503 80 77 2.0 5.0 0.00 0.00 0.00 69 1024.3
20260831183004 80 75 1.0 3.0 0.00 0.00 0.00 67 1024.2
20260831182504 80 49 1.0 5.0 0.00 0.00 0.00 67 1024.1
20260831182004 80 39 1.0 6.0 0.00 0.00 0.00 66 1024.0
20260831181503 81 50 2.0 3.0 0.00 0.00 0.00 65 1023.9
20260831181003 81 75 1.0 3.0 0.00 0.00 0.00 65 1024.0
20260831180504 81 68 2.0 6.0 0.00 0.00 0.00 64 1024.1
20260831180005 81 60 3.0 7.0 0.00 0.00 0.00 63 1024.0
20260831175504 81 62 2.0 8.0 0.00 0.00 0.00 63 1024.0
20260831175004 82 35 3.0 6.0 0.00 0.00 0.00 62 1024.2
20260831174504 82 59 3.0 8.0 0.00 0.00 0.00 62 1024.2
20260831174004 82 57 2.0 7.0 0.00 0.00 0.00 62 1024.1
20260831173003 82 58 4.0 8.0 0.00 0.00 0.00 62 1024.0
20260831172503 82 40 5.0 9.0 0.00 0.00 0.00 61 1024.0
20260831172003 83 53 6.0 8.0 0.00 0.00 0.00 61 1023.9
20260831171504 83 49 3.0 8.0 0.00 0.00 0.00 60 1023.9
20260831171004 84 59 5.0 9.0 0.00 0.00 0.00 59 1023.8
20260831170504 84 40 4.0 10.0 0.00 0.00 0.00 59 1023.8
20260831165503 85 54 5.0 7.0 0.00 0.00 0.00 57 1023.7
20260831165003 84 40 3.0 9.0 0.00 0.00 0.00 58 1023.9
20260831163005 85 35 6.0 13.0 0.00 0.00 0.00 58 1023.7
20260831162003 86 43 4.0 12.0 0.00 0.00 0.00 58 1023.8
20260831161504 87 64 5.0 10.0 0.00 0.00 0.00 57 1023.5
20260831161004 87 64 4.0 10.0 0.00 0.00 0.00 57 1023.7
20260831160504 87 37 5.0 12.0 0.00 0.00 0.00 57 1023.7
20260831160004 87 55 5.0 9.0 0.00 0.00 0.00 56 1023.5
20260831155503 87 41 4.0 12.0 0.00 0.00 0.00 57 1023.6
20260831155004 87 57 5.0 10.0 0.00 0.00 0.00 57 1023.6
20260831154504 88 52 3.0 10.0 0.00 0.00 0.00 55 1023.6
20260831153504 87 29 4.0 12.0 0.00 0.00 0.00 56 1023.8
20260831153004 88 50 5.0 10.0 0.00 0.00 0.00 56 1023.5
20260831152504 88 56 6.0 12.0 0.00 0.00 0.00 56 1023.6
20260831152004 89 29 3.0 9.0 0.00 0.00 0.00 54 1023.6
20260831151505 89 48 4.0 8.0 0.00 0.00 0.00 54 1023.6
20260831151004 88 41 6.0 9.0 0.00 0.00 0.00 55 1023.6
20260831150504 88 66 6.0 10.0 0.00 0.00 0.00 55 1023.6
20260831150004 87 54 5.0 10.0 0.00 0.00 0.00 56 1023.7
20260831145504 88 40 5.0 10.0 0.00 0.00 0.00 54 1023.7
20260831145004 89 54 5.0 7.0 0.00 0.00 0.00 54 1023.7
20260831144504 90 57 3.0 8.0 0.00 0.00 0.00 54 1023.7
20260831144004 88 46 3.0 8.0 0.00 0.00 0.00 53 1023.8
20260831143505 88 50 5.0 9.0 0.00 0.00 0.00 54 1023.8
20260831143004 88 64 6.0 10.0 0.00 0.00 0.00 54 1023.7
20260831142504 87 56 5.0 13.0 0.00 0.00 0.00 55 1024.0
20260831142003 88 36 4.0 12.0 0.00 0.00 0.00 54 1024.0
20260831141504 89 26 5.0 8.0 0.00 0.00 0.00 53 1023.6
20260831141003 88 65 4.0 12.0 0.00 0.00 0.00 52 1023.8
20260831140503 87 47 5.0 9.0 0.00 0.00 0.00 54 1024.0
20260831140004 88 47 6.0 14.0 0.00 0.00 0.00 53 1023.8
20260831135504 88 63 7.0 12.0 0.00 0.00 0.00 52 1023.9
20260831134504 88 37 5.0 12.0 0.00 0.00 0.00 50 1023.7
20260831133505 89 43 5.0 10.0 0.00 0.00 0.00 48 1023.7
20260831133005 88 36 5.0 13.0 0.00 0.00 0.00 48 1023.8
20260831132504 88 49 6.0 12.0 0.00 0.00 0.00 49 1024.0
20260831132004 89 53 4.0 10.0 0.00 0.00 0.00 48 1023.8
20260831131504 88 45 6.0 12.0 0.00 0.00 0.00 48 1023.9
20260831131004 87 51 7.0 13.0 0.00 0.00 0.00 48 1024.2
20260831130504 89 21 5.0 9.0 0.00 0.00 0.00 45 1023.9
20260831130004 88 51 3.0 14.0 0.00 0.00 0.00 46 1024.2
20260831125503 89 46 4.0 10.0 0.00 0.00 0.00 46 1024.1
20260831125004 89 61 5.0 9.0 0.00 0.00 0.00 45 1024.1
20260831124504 88 49 5.0 10.0 0.00 0.00 0.00 44 1024.1
20260831124004 88 54 6.0 13.0 0.00 0.00 0.00 47 1024.2
20260831123504 88 53 6.0 10.0 0.00 0.00 0.00 45 1024.4
20260831123003 88 54 7.0 12.0 0.00 0.00 0.00 42 1024.4
20260831122504 89 62 2.0 8.0 0.00 0.00 0.00 40 1024.2
20260831121503 88 57 5.0 12.0 0.00 0.00 0.00 40 1024.5
20260831121003 89 63 5.0 9.0 0.00 0.00 0.00 41 1024.3
20260831120504 89 60 6.0 10.0 0.00 0.00 0.00 41 1024.5
20260831120004 89 77 5.0 10.0 0.00 0.00 0.00 38 1024.2
20260831115503 88 65 5.0 9.0 0.00 0.00 0.00 38 1024.4
20260831115004 89 44 5.0 9.0 0.00 0.00 0.00 36 1024.4
20260831114505 88 60 3.0 12.0 0.00 0.00 0.00 35 1024.5
20260831113503 88 46 3.0 9.0 0.00 0.00 0.00 36 1024.6
20260831113003 89 57 4.0 8.0 0.00 0.00 0.00 35 1024.7
20260831112504 89 45 3.0 7.0 0.00 0.00 0.00 32 1024.4
20260831112004 89 53 3.0 8.0 0.00 0.00 0.00 33 1024.5
20260831111004 89 62 2.0 7.0 0.00 0.00 0.00 33 1024.6
20260831110004 88 49 3.0 8.0 0.00 0.00 0.00 31 1024.7
20260831105504 88 40 3.0 6.0 0.00 0.00 0.00 30 1024.6
20260831105003 88 74 2.0 6.0 0.00 0.00 0.00 29 1024.8
20260831104503 88 61 2.0 6.0 0.00 0.00 0.00 29 1024.9
20260831103503 87 75 3.0 6.0 0.00 0.00 0.00 27 1025.1
20260831102503 85 45 4.0 9.0 0.00 0.00 0.00 29 1025.2
20260831101504 84 51 4.0 8.0 0.00 0.00 0.00 29 1025.2
20260831101004 84 60 3.0 9.0 0.00 0.00 0.00 30 1025.4
20260831100503 84 60 2.0 7.0 0.00 0.00 0.00 30 1025.1
20260831100004 84 41 3.0 6.0 0.00 0.00 0.00 30 1025.1
20260831095004 83 58 3.0 9.0 0.00 0.00 0.00 30 1025.0
20260831094503 83 59 4.0 9.0 0.00 0.00 0.00 30 1025.2
20260831094004 83 48 3.0 6.0 0.00 0.00 0.00 29 1025.1
20260831093504 83 40 2.0 6.0 0.00 0.00 0.00 29 1025.2
20260831093004 82 67 4.0 8.0 0.00 0.00 0.00 29 1025.3
20260831092004 83 65 2.0 5.0 0.00 0.00 0.00 29 1025.2
20260831091504 82 53 2.0 6.0 0.00 0.00 0.00 30 1025.4
20260831091003 81 43 3.0 8.0 0.00 0.00 0.00 31 1025.4
20260831090504 82 52 3.0 7.0 0.00 0.00 0.00 31 1025.1
20260831090004 82 61 2.0 5.0 0.00 0.00 0.00 29 1025.0
20260831085004 81 60 2.0 5.0 0.00 0.00 0.00 29 1024.7
20260831084504 81 57 2.0 5.0 0.00 0.00 0.00 29 1024.7
20260831084004 80 51 2.0 5.0 0.00 0.00 0.00 30 1024.8
20260831083503 80 53 3.0 6.0 0.00 0.00 0.00 32 1024.7
20260831083004 81 56 2.0 5.0 0.00 0.00 0.00 32 1024.5
20260831082504 81 98 2.0 3.0 0.00 0.00 0.00 32 1024.6
20260831082003 80 62 2.0 6.0 0.00 0.00 0.00 31 1024.5
20260831081503 81 65 1.0 5.0 0.00 0.00 0.00 31 1024.3
20260831081004 80 89 0.0 2.0 0.00 0.00 0.00 32 1024.2
20260831080504 80 93 1.0 2.0 0.00 0.00 0.00 32 1024.3
20260831080004 81 123 1.0 2.0 0.00 0.00 0.00 31 1023.9
20260831075503 80 133 1.0 2.0 0.00 0.00 0.00 31 1023.9
20260831074504 78 223 0.0 0.0 0.00 0.00 0.00 33 1024.0
20260831074004 76 223 0.0 1.0 0.00 0.00 0.00 33 1024.2
20260831073504 76 223 0.0 1.0 0.00 0.00 0.00 34 1024.3
20260831073004 75 223 1.0 1.0 0.00 0.00 0.00 35 1024.2
20260831072504 74 223 1.0 1.0 0.00 0.00 0.00 35 1024.2
20260831071503 73 223 1.0 1.0 0.00 0.00 0.00 37 1024.5
20260831071004 73 224 1.0 1.0 0.00 0.00 0.00 38 1024.3
20260831070504 73 223 0.0 1.0 0.00 0.00 0.00 38 1024.2
20260831070004 74 249 0.0 0.0 0.00 0.00 0.00 37 1024.2
20260831065504 74 249 0.0 0.0 0.00 0.00 0.00 39 1024.1
20260831065004 72 249 0.0 0.0 0.00 0.00 0.00 38 1024.3
20260831064504 70 249 0.0 0.0 0.00 0.00 0.00 40 1024.4
20260831064005 70 248 0.0 0.0 0.00 0.00 0.00 40 1024.5
20260831063504 70 249 0.0 0.0 0.00 0.00 0.00 39 1024.4
20260831063004 71 249 0.0 0.0 0.00 0.00 0.00 39 1024.2
20260831062504 70 249 0.0 0.0 0.00 0.00 0.00 39 1024.1
20260831062004 69 248 0.0 0.0 0.00 0.00 0.00 40 1024.1
20260831061504 70 253 0.0 0.0 0.00 0.00 0.00 40 1023.7
20260831061004 68 256 0.0 0.0 0.00 0.00 0.00 43 1024.0
20260831060504 67 256 0.0 0.0 0.00 0.00 0.00 43 1024.1
20260831060004 67 256 0.0 0.0 0.00 0.00 0.00 43 1024.0
20260831055004 66 250 1.0 2.0 0.00 0.00 0.00 43 1023.9
20260831054504 66 265 0.0 0.0 0.00 0.00 0.00 45 1023.7
20260831054004 66 265 0.0 0.0 0.00 0.00 0.00 44 1023.8
20260831053503 65 265 0.0 0.0 0.00 0.00 0.00 45 1023.8
20260831053005 66 265 0.0 0.0 0.00 0.00 0.00 44 1023.7
20260831052004 66 265 0.0 0.0 0.00 0.00 0.00 43 1023.5
20260831051503 66 265 0.0 0.0 0.00 0.00 0.00 43 1023.6
20260831051003 66 265 1.0 2.0 0.00 0.00 0.00 43 1023.4
20260831050505 66 347 0.0 2.0 0.00 0.00 0.00 43 1023.5
20260831050004 66 263 0.0 1.0 0.00 0.00 0.00 43 1023.2
20260831045503 66 223 1.0 1.0 0.00 0.00 0.00 44 1023.4
20260831045003 66 222 0.0 0.0 0.00 0.00 0.00 43 1023.2
20260831044504 66 223 0.0 1.0 0.00 0.00 0.00 43 1023.2
20260831044004 66 218 1.0 2.0 0.00 0.00 0.00 43 1023.3
20260831043504 66 237 0.0 2.0 0.00 0.00 0.00 43 1023.5
20260831043004 67 238 0.0 2.0 0.00 0.00 0.00 42 1023.2
20260831042504 67 237 1.0 2.0 0.00 0.00 0.00 42 1023.2
20260831040504 67 237 0.0 1.0 0.00 0.00 0.00 41 1023.5
20260831040004 67 238 0.0 1.0 0.00 0.00 0.00 41 1023.4
20260831035504 67 238 1.0 2.0 0.00 0.00 0.00 41 1023.4
20260831034504 68 237 0.0 1.0 0.00 0.00 0.00 41 1023.3
20260831034004 67 238 0.0 2.0 0.00 0.00 0.00 41 1023.2
20260831033503 67 238 0.0 0.0 0.00 0.00 0.00 41 1023.3
20260831032504 68 238 1.0 2.0 0.00 0.00 0.00 40 1023.0
20260831032004 68 238 0.0 0.0 0.00 0.00 0.00 42 1022.9
20260831031504 68 238 0.0 0.0 0.00 0.00 0.00 40 1023.1
20260831031003 69 238 0.0 1.0 0.00 0.00 0.00 39 1022.9
20260831030504 69 238 1.0 2.0 0.00 0.00 0.00 39 1023.0
20260831030004 69 238 0.0 2.0 0.00 0.00 0.00 39 1023.1
20260831025504 69 238 0.0 0.0 0.00 0.00 0.00 39 1022.9
20260831024504 69 238 1.0 2.0 0.00 0.00 0.00 39 1022.7
20260831024004 69 226 1.0 2.0 0.00 0.00 0.00 39 1022.9
20260831023504 69 219 0.0 1.0 0.00 0.00 0.00 39 1023.0
20260831023005 69 225 1.0 2.0 0.00 0.00 0.00 38 1022.9
20260831022503 69 236 1.0 1.0 0.00 0.00 0.00 38 1023.0
20260831022004 69 199 0.0 2.0 0.00 0.00 0.00 38 1023.2
20260831021504 69 67 0.0 1.0 0.00 0.00 0.00 38 1023.2
20260831020004 70 228 1.0 3.0 0.00 0.00 0.00 38 1023.0
20260831015503 70 259 0.0 0.0 0.00 0.00 0.00 38 1023.2
20260831015003 70 260 0.0 0.0 0.00 0.00 0.00 37 1023.0
20260831014503 70 260 1.0 2.0 0.00 0.00 0.00 37 1023.0
20260831013503 69 258 0.0 1.0 0.00 0.00 0.00 37 1023.0
20260831012504 70 258 0.0 1.0 0.00 0.00 0.00 37 1023.1
20260831012004 70 258 0.0 0.0 0.00 0.00 0.00 36 1023.3
20260831011504 70 258 0.0 0.0 0.00 0.00 0.00 37 1023.1
20260831011004 70 258 0.0 1.0 0.00 0.00 0.00 37 1023.0
20260831010504 70 258 0.0 1.0 0.00 0.00 0.00 36 1023.2
20260831005504 70 258 0.0 1.0 0.00 0.00 0.00 37 1023.3
20260831005004 70 258 0.0 0.0 0.00 0.00 0.00 37 1023.1
20260831004503 70 258 0.0 1.0 0.00 0.00 0.00 37 1023.0